Walvis Bay Airport

Jump to: basic info | weather | frequencies | runways | comments

Related pages: nearby airports | nearby navaids | notams | map

Basic information (top)

Codes: WVB FYWB
Location: lon -22.979900, lat 14.645300, elev 299 ft / 91 m msl
Status: medium_airport
Scheduled airline service: no
Links: Wikipedia Mobile

Weather (top)

Current conditions (rec'd 2015/01/30 18:00Z):

FYWB 301800Z 23015KT CAVOK 20/13 Q1014 RESA

Airport forecast (rec'd 2015/01/30 06:24Z):

TAF FYWB 300400Z 3006/3112 05006KT 0800 -FG OVC009 
      BECMG 3007/3008 33007KT 9999 BKN015 
      BECMG 3009/3011 27006KT CAVOK 
      BECMG 3018/3020 9999 BKN012

Frequencies (top)

Verify before use: may be inaccurate or out of date.

APP: 122.5 MHz (APP)
TWR: 122.5 MHz (TWR)

Runways (top)

09/27: 7,001 x 98 ft (2,134 x 30 m) — paved — lighted

Latest comments (top)

No comments yet for Walvis Bay Airport

More... (top)

See also NOTAMs and nearby airports and navaids, or visit the Walvis Bay Airport page at the main OurAirports website..